Regional Weather Roundup
Issued by NWS

Home | Current Version | Previous Version | Graphics & Text | Print | Product List | Glossary On
Versions: 1 2 3 4 5 6 7 8 9 10 11 12 13 14 15 16 17 18 19 20 21 22 23 24 25 26 27 28 29 30 31 32 33 34 35 36 37 38 39 40 41 42 43 44 45 46 47 48 49 50
000
ASUS44 KMEG 300910
RWRTN
TENNESSEE HOURLY STATE WEATHER ROUNDUP
NATIONAL WEATHER SERVICE MEMPHIS TN
400 AM CDT THU MAR 30 2017

TNZ002-004-019-021-049-052-054-088>092-301000-
WEST TENNESSEE

CITY           SKY/WX    TMP DP  RH WIND       PRES   REMARKS
MEMPHIS INTL   CLOUDY    68  59  73 SW12      29.75R
NWS MEMPHIS      N/A     67 N/A N/A MISG        N/A
JACKSON        CLOUDY    71  59  65 S6        29.75F
DYERSBURG      CLOUDY    70  56  61 S9        29.73R
SOMERVILLE     MOCLDY    70  59  68 SW14G21   29.76R
BOLIVAR        CLOUDY    72  59  64 SE15G25   29.75F
PARIS          CLEAR     66  55  68 S10       29.75R
HUNTINGDON     PTCLDY    70  57  64 S10G16    29.74F
SAVANNAH       CLOUDY    70  59  68 S12G18    29.80S
$$

TNZ008-025-027-028-033-062-065-066-301000-
NORTH MIDDLE TENNESSEE

CITY           SKY/WX    TMP DP  RH WIND       PRES   REMARKS
NASHVILLE      MOCLDY    68  58  70 S7        29.83F
PORTLAND       PTCLDY    66  57  72 S9        29.82F
CLARKSVILLE    PTCLDY    68  56  65 S9        29.77F
SMYRNA         MOCLDY    63  59  87 SE8       29.85F
COOKEVILLE     CLOUDY    68  55  64 S7        29.87F
GALLATIN       MOCLDY    66  59  77 SE7       29.86S
CROSSVILLE     CLOUDY    64  53  67 S5        29.93F
$$

TNZ061-075-076-078-094-096-097-301000-
SOUTH MIDDLE TENNESSEE

CITY           SKY/WX    TMP DP  RH WIND       PRES   REMARKS
FAYETTEVILLE   MOCLDY    68  57  68 S13       29.88F
TULLAHOMA      CLEAR     66  54  63 S9        29.89F
WINCHESTER     CLEAR     66  55  68 SE3       29.90F
MCMINNVILLE    CLEAR     63  59  88 CALM      29.88F
COLUMBIA       CLEAR     70  63  78 S13       29.80F
SHELBYVILLE    CLEAR     70  59  68 S9        29.87F
$$

TNZ017-018-042-046-047-301000-
NORTHEAST TENNESSEE

CITY           SKY/WX    TMP DP  RH WIND       PRES   REMARKS
TRI CITIES     PTCLDY    50  46  86 CALM      29.99R
ELIZABETHTON   PTCLDY    63  50  63 E7        30.00R
$$

TNZ012-013-036-069-073-074-301000-
CENTRAL EAST TENNESSEE

CITY           SKY/WX    TMP DP  RH WIND       PRES   REMARKS
KNOXVILLE      PTCLDY    58  49  72 CALM      29.92S
OAK RIDGE      CLOUDY    58  51  78 CALM      29.94F
DOWNTOWN KNOXV MOCLDY    55  54  94 CALM      29.93S
GATLINBURG     CLEAR     50  46  87 CALM      29.93S
MORRISTOWN     CLOUDY    59  50  72 E3        29.94S
JACKSBORO      CLOUDY    50  50 100 CALM      29.96F
$$

TNZ083-085-099-301000-
SOUTHEAST TENNESSEE

CITY           SKY/WX    TMP DP  RH WIND       PRES   REMARKS
CHATTANOOGA    CLOUDY    62  57  83 CALM      29.91F
$$

SKY/WX REPORTED AS FAIR MEANS FEW OR NO CLOUDS BELOW
12 THOUSAND FEET.




USA.gov is the U.S. government's official web portal to all federal, state and local government web resources and services.